Flag for U.S.A. Weather past 2 weeks in Stockton, California, U.S.A.

Now
81 °F

Sunny.


Feels Like: 80 °F
Forecast: 58 / 93 °F
Wind: 3 mph from North

Location: Stockton Metropolitan Airport

Current Time: Aug 27, 2014 at 11:56:48 AM

Latest Report: Aug 27, 2014 at 10:55 AM


Visibility: 10 mi

Pressure: 30.03 "Hg

Humidity: 35%

Dew point: 51 °F

Location of StocktonLocation

Historic Weather in Stockton — Graph

°F

Stockton temperature yesterday

Maximum temperature yesterday: 89 °F (at 4:55 PM)
Minimum temperature yesterday: 57 °F (at 5:55 AM)
Average temperature yesterday: 72 °F

Past Weeks' High & Low Weather Summary

 TemperatureHumidityPressure
High94 °F (Aug 16, 3:55 PM)96% (Aug 21, 6:55 AM)30.04 "Hg (Aug 21, 6:55 AM)
Low56 °F (Aug 13, 5:55 AM)16% (Aug 17, 3:55 PM)29.72 "Hg (Aug 18, 5:55 PM)
Average73 °F56%29.88 "Hg
* Reported Aug 12 10:55 AM — Aug 27 10:55 AM, Stockton, Weather by CustomWeather, © 2014

Note: Actual official high and low records may vary slightly from our data, if they occured in-between our weather recording intervals... More about our weather records

Advertising

Stockton weather history for previous 24 hours

 ConditionsComfort  
Time TempWeatherWind HumidityBarometerVisibility
10:55 AM
Aug 27
81 °FSunny.3 mph35%30.03 "Hg10 mi
9:55 AM78 °FSunny.3 mph39%30.04 "Hg10 mi
8:55 AM73 °FSunny.5 mph48%30.03 "Hg10 mi
7:55 AM67 °FSunny.3 mph68%30.02 "Hg10 mi
6:55 AM63 °FClear.No wind70%30.01 "Hg10 mi
5:55 AM65 °FClear.5 mph68%29.99 "Hg10 mi
4:55 AM66 °FClear.8 mph63%29.98 "Hg10 mi
3:55 AM66 °FClear.3 mph65%29.98 "Hg10 mi
2:55 AM65 °FClear.5 mph66%29.97 "Hg10 mi
1:55 AM68 °FClear.3 mph59%29.96 "Hg10 mi
12:55 AM70 °FClear.8 mph55%29.95 "Hg10 mi
11:55 PM
Aug 26
71 °FClear.8 mph53%29.94 "Hg10 mi
10:55 PM72 °FClear.9 mph53%29.93 "Hg10 mi
9:55 PM75 °FClear.7 mph52%29.93 "Hg10 mi
8:55 PM76 °FClear.9 mph52%29.91 "Hg10 mi
7:55 PM81 °FSunny.9 mph42%29.89 "Hg10 mi
6:55 PM87 °FSunny.10 mph32%29.87 "Hg10 mi
5:55 PM89 °FSunny.6 mph26%29.87 "Hg10 mi
4:55 PM89 °FSunny.6 mph25%29.87 "Hg10 mi
3:55 PM88 °FSunny.5 mph29%29.88 "Hg10 mi
2:55 PM87 °FSunny.6 mph31%29.91 "Hg10 mi
1:55 PM85 °FSunny.7 mph35%29.93 "Hg10 mi
12:55 PM81 °FSunny.6 mph35%29.95 "Hg10 mi
11:55 AM77 °FSunny.6 mph44%29.97 "Hg10 mi
Weather by CustomWeather, © 2014

See weather overviewHow to use our weather pages